KB9YVI-11 Weather Reports


time (UTC)temp
C
wind
direction
speed
KPH
gust
KPH
rain 1hr
cm
rain 24hr
cm
rain mn
cm
humidity
%
barometer
mb
20260906093139 22 73 4.8 4.8 0.00 0.00 0.00 100
20260906092639 22 274 0.0 14.5 0.00 0.00 0.00 100
20260906092137 22 11 0.0 11.3 0.00 0.00 0.00 100
20260906091639 22 61 0.0 9.7 0.00 0.00 0.00 100
20260906091139 22 42 0.0 11.3 0.00 0.00 0.00 100
20260906090639 22 49 0.0 9.7 0.00 0.00 0.00 100
20260906090139 22 77 4.8 6.4 0.00 0.00 0.00 100
20260906085639 22 120 1.6 6.4 0.00 0.00 0.00 100
20260906085139 22 14 0.0 6.4 0.00 0.00 0.00 100
20260906084639 22 354 4.8 11.3 0.00 0.00 0.00 100
20260906084139 22 29 0.0 8.0 0.00 0.00 0.00 100
20260906083639 22 282 0.0 11.3 0.00 0.00 0.00 100
20260906083139 22 50 1.6 8.0 0.00 0.00 0.00 100
20260906082639 22 354 0.0 6.4 0.00 0.00 0.00 100
20260906082138 22 52 3.2 8.0 0.00 0.00 0.00 100
20260906081639 22 57 3.2 6.4 0.00 0.00 0.00 100
20260906081139 22 66 1.6 6.4 0.00 0.00 0.00 100
20260906080639 22 70 1.6 3.2 0.00 0.00 0.00 100
20260906080139 22 15 0.0 3.2 0.00 0.00 0.00 100
20260906075639 22 29 3.2 6.4 0.00 0.00 0.00 100
20260906075139 22 39 1.6 4.8 0.00 0.00 0.00 100
20260906074639 22 87 3.2 8.0 0.00 0.00 0.00 100
20260906073639 22 19 3.2 4.8 0.00 0.00 0.00 100
20260906073139 22 43 0.0 3.2 0.00 0.00 0.00 100
20260906072639 22 60 0.0 3.2 0.00 0.00 0.00 100
20260906072138 22 32 0.0 1.6 0.00 0.00 0.00 100
20260906071639 22 40 0.0 3.2 0.00 0.00 0.00 100
20260906071139 23 33 3.2 3.2 0.00 0.00 0.00 100
20260906070639 23 70 0.0 4.8 0.00 0.00 0.00 100
20260906065639 23 39 0.0 3.2 0.00 0.00 0.00 100
20260906065139 23 23 0.0 4.8 0.00 0.00 0.00 100
20260906064639 23 47 0.0 4.8 0.00 0.00 0.00 100
20260906064139 23 87 0.0 4.8 0.00 0.00 0.00 100
20260906063139 23 37 0.0 0.0 0.00 0.00 0.00 100
20260906062639 23 37 0.0 0.0 0.00 0.00 0.00 100
20260906062138 23 37 0.0 0.0 0.00 0.00 0.00 100
20260906061639 23 37 0.0 0.0 0.00 0.00 0.00 100
20260906061139 23 37 0.0 4.8 0.00 0.00 0.00 100
20260906060639 23 1 0.0 4.8 0.00 0.00 0.00 100
20260906060139 23 16 0.0 6.4 0.00 0.00 0.00 100
20260906055639 23 50 4.8 6.4 0.00 0.00 0.00 100
20260906054639 23 11 0.0 3.2 0.00 0.00 0.00 100
20260906054139 23 22 3.2 6.4 0.00 0.00 0.00 100
20260906053639 24 21 6.4 6.4 0.00 0.00 0.00 100
20260906053139 24 71 0.0 3.2 0.00 0.00 0.00 100
20260906052639 24 329 0.0 0.0 0.00 0.00 0.00 100
20260906052138 24 329 0.0 1.6 0.00 0.00 0.00 100
20260906051639 24 47 0.0 4.8 0.00 0.00 0.00 100
20260906051139 24 29 0.0 4.8 0.00 0.00 0.00 100
20260906050639 24 4 0.0 3.2 0.00 0.00 0.00 100
20260906045639 24 52 0.0 3.2 0.00 0.00 0.00 100
20260906045139 25 21 0.0 0.0 0.00 0.00 0.00 100
20260906044639 25 21 0.0 0.0 0.00 0.00 0.00 100
20260906044139 25 21 0.0 0.0 0.00 0.00 0.00 100
20260906043639 25 21 0.0 3.2 0.00 0.00 0.00 100
20260906043139 25 347 0.0 0.0 0.00 0.00 0.00 100
20260906042639 25 347 0.0 1.6 0.00 0.00 0.00 100
20260906042138 25 338 0.0 0.0 0.00 0.00 0.00 100
20260906041639 25 338 0.0 1.6 0.00 0.00 0.00 100
20260906040139 25 30 0.0 3.2 0.00 0.00 0.00 100
20260906035639 25 323 0.0 3.2 0.00 0.00 0.00 100
20260906035140 25 49 0.0 4.8 0.00 0.00 0.00 100
20260906034640 25 284 0.0 6.4 0.00 0.00 0.00 100
20260906034140 26 358 3.2 8.0 0.00 0.00 0.00 100
20260906033640 26 285 0.0 0.0 0.00 0.00 0.00 100
20260906032640 26 305 0.0 1.6 0.00 0.00 0.00 100
20260906032138 26 25 0.0 1.6 0.00 0.00 0.00 100
20260906031640 26 70 0.0 3.2 0.00 0.00 0.00 100
20260906031140 26 285 0.0 3.2 0.00 0.00 0.00 100
20260906030640 26 57 0.0 3.2 0.00 0.00 0.00 100
20260906025640 26 299 0.0 1.6 0.00 0.00 0.00 100
20260906025140 26 299 0.0 3.2 0.00 0.00 0.00 100
20260906024142 26 322 0.0 6.4 0.00 0.00 0.00 100
20260906023640 26 170 0.0 3.2 0.00 0.00 0.00 100
20260906023140 26 298 3.2 3.2 0.00 0.00 0.00 100
20260906022640 27 28 1.6 4.8 0.00 0.00 0.00 100
20260906022139 27 264 0.0 9.7 0.00 0.00 0.00 100
20260906021640 27 313 0.0 6.4 0.00 0.00 0.00 100
20260906021140 27 317 1.6 4.8 0.00 0.00 0.00 100
20260906020640 27 16 0.0 6.4 0.00 0.00 0.00 100
20260906020140 27 347 0.0 6.4 0.00 0.00 0.00 100
20260906014640 27 14 4.8 8.0 0.00 0.00 0.00 100
20260906014140 27 133 0.0 6.4 0.00 0.00 0.00 100
20260906013140 27 344 1.6 8.0 0.00 0.00 0.00 100
20260906012139 27 292 0.0 8.0 0.00 0.00 0.00 100
20260906011640 28 351 0.0 8.0 0.00 0.00 0.00 100
20260906011140 28 275 1.6 3.2 0.00 0.00 0.00 100
20260906010640 28 292 0.0 3.2 0.00 0.00 0.00 100
20260906005640 28 329 0.0 0.0 0.00 0.00 0.00 100
20260906004640 28 329 0.0 0.0 0.00 0.00 0.00 100
20260906003640 28 329 0.0 0.0 0.00 0.00 0.00 99
20260906003140 29 329 0.0 0.0 0.00 0.00 0.00 99
20260906002640 29 254 0.0 0.0 0.00 0.00 0.00 98
20260906002139 29 254 0.0 0.0 0.00 0.00 0.00 98
20260906001640 30 267 0.0 4.8 0.00 0.00 0.00 99
20260906001140 30 268 0.0 0.0 0.00 0.00 0.00 98
20260906000640 30 268 0.0 0.0 0.00 0.00 0.00 98
20260906000140 30 268 0.0 0.0 0.00 0.00 0.00 97
20260905235140 31 268 0.0 0.0 0.00 0.00 0.00 95
20260905234640 31 268 0.0 0.0 0.00 0.00 0.00 94
20260905234140 31 268 0.0 1.6 0.00 0.00 0.00 93
20260905233640 31 261 0.0 1.6 0.00 0.00 0.00 92
20260905233140 31 319 0.0 6.4 0.00 0.00 0.00 90
20260905232640 32 302 0.0 6.4 0.00 0.00 0.00 89
20260905232139 32 265 4.8 4.8 0.00 0.00 0.00 89
20260905231640 32 264 0.0 4.8 0.00 0.00 0.00 87
20260905231140 32 309 3.2 8.0 0.00 0.00 0.00 87
20260905230140 32 234 0.0 8.0 0.00 0.00 0.00 84
20260905225640 33 300 1.6 8.0 0.00 0.00 0.00 84
20260905225140 33 324 8.0 8.0 0.00 0.00 0.00 83
20260905224140 33 251 0.0 9.7 0.00 0.00 0.00 82
20260905223640 33 343 0.0 3.2 0.00 0.00 0.00 83
20260905222139 33 310 0.0 11.3 0.00 0.00 0.00 81
20260905221640 33 306 6.4 12.9 0.00 0.00 0.00 82
20260905220641 33 293 0.0 3.2 0.00 0.00 0.00 82
20260905215641 33 292 0.0 9.7 0.00 0.00 0.00 80
20260905215141 33 282 4.8 11.3 0.00 0.00 0.00 80
20260905214641 33 291 3.2 9.7 0.00 0.00 0.00 80
20260905213141 33 309 4.8 11.3 0.00 0.00 0.00 79
20260905212139 33 291 0.0 12.9 0.00 0.00 0.00 79
20260905211642 33 313 8.0 9.7 0.00 0.00 0.00 78
20260905211141 33 312 0.0 11.3 0.00 0.00 0.00 80
20260905210142 33 270 0.0 9.7 0.00 0.00 0.00 80
20260905205641 33 198 0.0 6.4 0.00 0.00 0.00 80
20260905205141 33 316 4.8 14.5 0.00 0.00 0.00 79
20260905204642 33 258 3.2 6.4 0.00 0.00 0.00 81
20260905204142 33 315 3.2 12.9 0.00 0.00 0.00 79
20260905203641 33 322 4.8 14.5 0.00 0.00 0.00 79
20260905203141 33 291 3.2 9.7 0.00 0.00 0.00 79
20260905202642 33 300 6.4 16.1 0.00 0.00 0.00 78
20260905202140 33 289 1.6 11.3 0.00 0.00 0.00 79
20260905201642 33 232 6.4 14.5 0.00 0.00 0.00 77
20260905200142 33 302 3.2 16.1 0.00 0.00 0.00 76
20260905195641 33 306 8.0 12.9 0.00 0.00 0.00 75
20260905195141 33 267 8.0 9.7 0.00 0.00 0.00 78
20260905194641 33 236 1.6 8.0 0.00 0.00 0.00 78
20260905194142 33 244 3.2 16.1 0.00 0.00 0.00 75
20260905193641 33 302 8.0 12.9 0.00 0.00 0.00 76
20260905193141 34 327 3.2 14.5 0.00 0.00 0.00 75
20260905192641 34 278 3.2 17.7 0.00 0.00 0.00 75
20260905192140 34 5 1.6 9.7 0.00 0.00 0.00 78
20260905191641 33 217 4.8 9.7 0.00 0.00 0.00 79
20260905191141 33 300 3.2 11.3 0.00 0.00 0.00 78
20260905190641 33 201 6.4 11.3 0.00 0.00 0.00 78
20260905190141 33 260 3.2 16.1 0.00 0.00 0.00 77
20260905185641 33 275 8.0 9.7 0.00 0.00 0.00 78
20260905185141 33 262 6.4 12.9 0.00 0.00 0.00 80
20260905184641 33 229 11.3 11.3 0.00 0.00 0.00 80
20260905183641 32 226 1.6 11.3 0.00 0.00 0.00 82
20260905183141 32 268 4.8 9.7 0.00 0.00 0.00 83
20260905182641 32 268 0.0 1.6 0.00 0.00 0.00 83
20260905182140 32 268 0.0 8.0 0.00 0.00 0.00 81
20260905181641 32 295 1.6 11.3 0.00 0.00 0.00 81
20260905181141 32 258 6.4 9.7 0.00 0.00 0.00 80
20260905180643 32 220 3.2 12.9 0.00 0.00 0.00 81
20260905180141 32 177 1.6 11.3 0.00 0.00 0.00 83
20260905175641 32 219 6.4 11.3 0.00 0.00 0.00 82
20260905175141 32 315 4.8 12.9 0.00 0.00 0.00 82
20260905174641 32 189 1.6 9.7 0.00 0.00 0.00 81
20260905174141 32 174 1.6 8.0 0.00 0.00 0.00 81
20260905173643 32 202 3.2 8.0 0.00 0.00 0.00 81
20260905173141 32 222 3.2 9.7 0.00 0.00 0.00 81
20260905172641 31 185 3.2 9.7 0.00 0.00 0.00 82
20260905172140 31 171 4.8 12.9 0.00 0.00 0.00 81
20260905171641 31 167 12.9 12.9 0.00 0.00 0.00 82
20260905171141 31 133 6.4 12.9 0.00 0.00 0.00 81
20260905170141 31 206 8.0 17.7 0.00 0.00 0.00 81
20260905165641 31 14 12.9 14.5 0.00 0.00 0.00 81
20260905164641 31 184 6.4 14.5 0.00 0.00 0.00 80
20260905164141 31 192 0.0 11.3 0.00 0.00 0.00 80
20260905163142 31 198 3.2 11.3 0.00 0.00 0.00 80
20260905162642 31 146 4.8 8.0 0.00 0.00 0.00 80
20260905162140 31 115 3.2 14.5 0.00 0.00 0.00 79
20260905161643 31 209 1.6 12.9 0.00 0.00 0.00 82
20260905161143 31 139 9.7 14.5 0.00 0.00 0.00 81
20260905160642 30 130 12.9 17.7 0.00 0.00 0.00 79
20260905160142 30 142 9.7 17.7 0.00 0.00 0.00 80
20260905155642 30 150 8.0 16.1 0.00 0.00 0.00 81
20260905155142 30 142 9.7 22.5 0.00 0.00 0.00 82
20260905153642 29 142 8.0 12.9 0.00 0.00 0.00 88
20260905153142 28 149 4.8 11.3 0.00 0.00 0.00 87
20260905152642 28 140 4.8 14.5 0.00 0.00 0.00 89
20260905152141 28 102 11.3 16.1 0.00 0.00 0.00 88
20260905151642 28 153 6.4 19.3 0.00 0.00 0.00 89
20260905151142 28 157 3.2 19.3 0.00 0.00 0.00 89
20260905150642 28 222 3.2 14.5 0.00 0.00 0.00 91
20260905145642 27 144 12.9 17.7 0.00 0.00 0.00 92
20260905145142 27 139 9.7 24.1 0.00 0.00 0.00 92
20260905144642 27 98 4.8 22.5 0.00 0.00 0.00 93
20260905144143 27 130 11.3 19.3 0.00 0.00 0.00 93
20260905143642 27 109 8.0 17.7 0.00 0.00 0.00 94
20260905143142 27 108 8.0 16.1 0.00 0.00 0.00 93
20260905142642 27 147 11.3 17.7 0.00 0.00 0.00 92
20260905142141 27 146 9.7 16.1 0.00 0.00 0.00 93
20260905141642 27 137 4.8 19.3 0.00 0.00 0.00 95
20260905141142 26 120 14.5 24.1 0.00 0.00 0.00 95
20260905140642 26 181 11.3 25.7 0.00 0.00 0.00 95
20260905140142 26 104 8.0 14.5 0.00 0.00 0.00 96
20260905135142 26 178 8.0 24.1 0.00 0.00 0.00 98
20260905134642 26 133 6.4 19.3 0.00 0.00 0.00 99
20260905134142 25 105 11.3 25.7 0.00 0.00 0.00 99
20260905133142 25 118 9.7 20.9 0.00 0.00 0.00 100
20260905132642 25 125 9.7 20.9 0.00 0.00 0.00 100
20260905132141 25 109 17.7 24.1 0.00 0.00 0.00 100
20260905131642 25 81 6.4 12.9 0.00 0.00 0.00 100
20260905131142 24 60 3.2 12.9 0.00 0.00 0.00 100
20260905130642 24 104 8.0 19.3 0.00 0.00 0.00 100
20260905130142 24 95 11.3 19.3 0.00 0.00 0.00 100
20260905125642 23 60 0.0 12.9 0.00 0.00 0.00 100
20260905124642 23 53 0.0 16.1 0.00 0.00 0.00 100
20260905124142 23 140 8.0 16.1 0.00 0.00 0.00 100
20260905123642 23 81 6.4 9.7 0.00 0.00 0.00 100
20260905123142 23 50 0.0 12.9 0.00 0.00 0.00 100
20260905122642 23 32 3.2 17.7 0.00 0.00 0.00 100
20260905122141 23 85 6.4 6.4 0.00 0.00 0.00 100
20260905121642 23 184 0.0 0.0 0.00 0.00 0.00 100
20260905121142 23 184 0.0 0.0 0.00 0.00 0.00 100
20260905120142 23 184 0.0 0.0 0.00 0.00 0.00 100
20260905115642 23 184 0.0 0.0 0.00 0.00 0.00 100
20260905115142 23 184 0.0 0.0 0.00 0.00 0.00 100
20260905114642 23 184 0.0 0.0 0.00 0.00 0.00 100
20260905114142 23 184 0.0 0.0 0.00 0.00 0.00 100
20260905113142 23 184 0.0 0.0 0.00 0.00 0.00 100
20260905112642 23 184 0.0 0.0 0.00 0.00 0.00 100
20260905112141 23 184 0.0 0.0 0.00 0.00 0.00 100
20260905111142 23 184 0.0 0.0 0.00 0.00 0.00 100
20260905110642 23 184 0.0 0.0 0.00 0.00 0.00 100
20260905110142 23 184 0.0 0.0 0.00 0.00 0.00 100
20260905105642 23 184 0.0 0.0 0.00 0.00 0.00 100
20260905105143 23 184 0.0 0.0 0.00 0.00 0.00 100
20260905104643 23 184 0.0 0.0 0.00 0.00 0.00 100
20260905104143 23 184 0.0 0.0 0.00 0.00 0.00 100
20260905103643 23 184 0.0 0.0 0.00 0.00 0.00 100
20260905103143 23 184 0.0 0.0 0.00 0.00 0.00 100
20260905102644 23 184 0.0 0.0 0.00 0.00 0.00 100
20260905102141 23 184 0.0 0.0 0.00 0.00 0.00 100
20260905101643 23 184 0.0 0.0 0.00 0.00 0.00 100
20260905101143 23 184 0.0 0.0 0.00 0.00 0.00 100
20260905100143 23 184 0.0 0.0 0.00 0.00 0.00 100
20260905095143 23 184 0.0 0.0 0.00 0.00 0.00 100
20260905094643 24 184 0.0 0.0 0.00 0.00 0.00 100
20260905094143 24 184 0.0 0.0 0.00 0.00 0.00 100
20260905093643 24 184 0.0 0.0 0.00 0.00 0.00 100